Startpagina
METAR-TAF:

METAR-TAF

Vliegvelden :

Nampa, Idaho, Verenigde Staten

breedte: 43-34-53N, lengte: 116-31-23W, hoogte: 773 m

Actueel weer

Dit bericht is 16 minuten geleden gemaakt, om 12:15 UTC
Wind 4 kt uit het noordwesten
Temperatuur 11°C
Vochtigheid 43%
Druk 1013 hPa
Zicht: 16.1 km

METAR: KMAN 191215Z AUTO 31004KT 10SM 11/M01 A2992 RMK A01

Tijdstip: 06:31 (12:31 UTC)


TAF: ontbreekt

Waarnemingen en weersverwachtingen van meer dan 4000 vliegvelden (METAR en TAF).

De beschikbare stations zijn de gele en rode punten op de kaart.

Ga met uw muis naar het station om de naam te zien.

Klik dan om waarnemingen en weersverwachtingen te zien.

kaart wijzigen: klik op de groene knoppen met een zwart kruis om in te zoomen, op de groene knop met een streepje om uit te zoomen of op de groene pijlen voor aangrenzende kaarten.


METAR-TAF: